Home > Weather > Pasadena > Past weeks

Flag for U.S.A. Weather for the Past 2 Weeks in Pasadena, Texas, U.S.A.

Now
72 °F

Clear.


Feels Like: 77 °F
Forecast: 55 / 61 °F
Wind: 3 mph from Southeast

Location: Houston / Ellington

Current Time: Feb 12, 2016 at 7:38:52 PM

Latest Report: Feb 12, 2016 at 6:50 PM


Visibility: 10 mi

Pressure: 30.22 "Hg

Humidity: 53%

Dew point: 54 °F

Location of PasadenaLocation

Historic Weather in Pasadena — Graph

°F

Pasadena Temperature Yesterday

Maximum temperature yesterday: 77 °F (at 12:50 PM)
Minimum temperature yesterday: 54 °F (at 4:50 AM)
Average temperature yesterday: 65 °F

High & Low Weather Summary for the Past Weeks

 TemperatureHumidityPressure
High79 °F (Feb 12, 11:50 AM)100% (Jan 30, 1:50 AM)30.50 "Hg (Jan 30, 1:50 AM)
Low39 °F (Feb 7, 5:50 AM)6% (Feb 8, 12:50 PM)29.61 "Hg (Feb 2, 2:50 AM)
Average58 °F57%30.17 "Hg
* Reported Jan 28 4:50 PM — Feb 12 4:50 PM, Pasadena, Weather by CustomWeather, © 2016

Note: Actual official high and low records may vary slightly from our data, if they occured in-between our weather recording intervals... More about our weather records

Advertising

Pasadena Weather History for the Previous 24 Hours

 ConditionsComfort  
Time TempWeatherWind HumidityBarometerVisibility
4:50 PM
Fri, Feb 12
79 °FSunny.No wind45%30.20 "Hg10 mi
3:50 PM79 °FPassing clouds.No wind51%30.19 "Hg10 mi
2:50 PM79 °FPassing clouds.8 mph58%30.19 "Hg10 mi
1:50 PM79 °FPassing clouds.7 mph58%30.21 "Hg10 mi
12:50 PM79 °FPassing clouds.7 mph58%30.24 "Hg10 mi
11:50 AM79 °FPassing clouds.12 mph58%30.26 "Hg10 mi
10:50 AM75 °FPassing clouds.12 mph57%30.28 "Hg10 mi
9:50 AM75 °FPassing clouds.13 mph57%30.28 "Hg10 mi
8:50 AM70 °FSunny.5 mph94%30.26 "Hg7 mi
7:50 AM57 °FFog.No wind100%30.24 "Hg1 mi
6:50 AM57 °FFog.No wind100%30.23 "Hg1 mi
5:50 AM57 °FFog.No wind94%30.22 "Hg4 mi
3:50 AM61 °FClear.7 mph94%30.18 "Hg10 mi
2:50 AM59 °FClear.7 mph100%30.18 "Hg10 mi
1:50 AM61 °FClear.7 mph94%30.18 "Hg10 mi
12:50 AM59 °FClear.6 mph94%30.18 "Hg10 mi
10:50 PM
Thu, Feb 11
61 °FClear.3 mph88%30.20 "Hg10 mi
9:50 PM61 °FClear.5 mph88%30.20 "Hg10 mi
8:50 PM64 °FClear.6 mph68%30.19 "Hg10 mi
7:50 PM64 °FClear.6 mph64%30.19 "Hg10 mi
Weather by CustomWeather, © 2016

See weather overviewHow to use our weather pages